SCP
0 0 0 0 0 0 0 0 0 0 0 0 0 0 0 0 0 0 0 0 0 0 0 0 0 0 0 0 0 -0 0 0 0 0 0 0 0 0 0 0 0 0 0 0 0 0 0 0 0 -0 0 0 0 -0
0 0 0 0 0 0 0 0 0 0 0 0 0 0 0 0 0 0 0 0 0 0 0 0 0 0 0 0 0 0 0 0 0 0 0 0 0 0 0 0 0 0 0 0 0 0 0 0 0 0 0 0 0 0
0 0 0 0 0 0 0 0 0 0 0 0 0 0 0 0 0 0 0 0 0 0 0 0 0 0 0 0 0 0 0 0 0 0 0 0 0 0 0 0 -0 0 0 0 0 0 0 0 0 0 0 0 0 0
0 0 0 0 0 0 0 0 0 0 0 0 0 0 0 0 0 0 0 0 0 0 0 0 0 0 0 0 0 0 0 0 0 0 0 0 0 0 0 0 -0 0 0 0 0 0 -0 0 0 0 0 0 0 0
0 0 0 0 0 0 0 0 0 0 0 0 0 0 0 0 0 0 0 0 0 0 0 0 -0 -0 0 0 0 0 0 0 0 0 0 0 0 0 0 0 0 0 0 0 0 0 0 0 0 0 0 -0 0 -0
0 0 0 0 0 0 0 0 0 0 0 0 0 0 0 0 0 0 0 0 0 0 0 0 0 -0 -0 0 0 0 0 0 0 0 0 0 0 0 0 -0 0 0 0 0 0 0 0 0 0 0 0 0 -0 -0
0 0 0 0 0 0 0 0 0 0 0 0 0 0 0 0 0 0 0 0 0 0 0 0 0 -0 -0 0 0 0 0 0 0 0 0 0 0 0 0 0 0 -0 0 0 0 0 0 0 0 0 0 0 0 0
0 0 0 0 0 0 0 0 0 0 0 0 0 0 0 0 0 0 0 0 0 0 0 0 -0 -0 -0 0 0 0 0 0 0 0 0 -0 0 0 -0 0 -0 -0 0 0 0 0 0 0 0 0 0 0 -0 0
0 0 0 0 0 0 0 0 0 0 0 0 0 0 0 0 0 0 0 0 0 0 0 0 0 0 -0 -0 0 0 0 0 0 0 0 -0 -0 0 0 0 -0 -0 -0 0 0 0 0 0 0 0 0 0 0 0
0 0 0 0 0 0 0 0 0 0 0 0 0 0 0 0 0 0 0 0 0 0 0 0 0 0 0 0 0 0 0 0 0 -0 0 -0 0 -0 0 0 0 -0 -0 -0 -0 0 0 0 0 0 0 0 0 0
0 0 0 0 0 0 0 0 0 0 0 0 0 0 0 0 0 0 0 0 0 0 -0 0 0 -0 0 0 0 0 -0 -0 -0 0 -0 -0 0 0 -0 0 -0 -0 -0 -0 0 0 0 0 0 0 0 0 0 0
0 0 0 0 0 0 0 0 0 0 0 0 0 0 0 0 0 0 0 0 0 -0 0 0 0 -0 -0 0 0 0 -0 -0 0 -0 -0 -0 0 -0 0 0 -0 -0 -0 -0 0 0 0 0 0 0 0 0 0 -0
0 0 0 0 0 0 0 -0 0 -0 0 0 0 0 0 0 0 0 0 0 -0 -0 -0 0 -0 0 0 -0 -0 -0 -0 -0 -0 0 -0 0 0 0 -0 -0 0 -0 -0 0 0 0 0 0 0 0 0 0 0 -0
0 0 -0 -0 -0 -0 -0 -0 -0 0 0 0 0 0 0 0 0 0 -0 -0 0 0 -0 0 -0 -0 0 0 -0 -0 -0 0 0 -0 0 0 0 0 0 -0 0 -0 -0 -0 0 0 0 0 0 0 0 0 0 0
0 -0 0 0 0 0 -0 -0 0 0 0 0 0 0 -0 0 0 0 0 -0 -0 -0 -0 0 0 0 -0 -0 0 0 -0 0 0 -0 0 0 0 0 -0 -0 -0 -0 -0 -0 -0 0 0 0 0 0 0 0 0 -0
0 0 0 0 0 -0 -0 0 0 0 0 0 0 0 0 0 0 0 0 0 -0 0 0 0 -0 0 0 0 0 0 0 0 -0 -0 0 0 -0 -0 0 0 -0 -0 -0 -0 -0 0 0 0 0 0 0 0 0 -0
0 0 0 0 -0 -0 -0 0 0 0 0 0 0 0 0 0 0 -0 -0 0 0 0 0 -0 0 0 -0 -0 -0 0 0 0 0 0 0 -0 -0 -0 -0 -0 0 -0 -0 -0 -0 -0 -0 0 0 0 0 0 -0 -0
0 0 -0 -0 -0 0 0 0 0 0 0 0 0 0 0 0 0 0 0 0 0 0 0 0 0 0 0 0 -0 -0 0 0 0 0 0 0 0 0 -0 -0 -0 -0 0 -0 -0 0 -0 -0 0 0 0 0 0 -0
0 -0 -0 -0 0 0 0 0 0 0 0 0 0 -0 0 0 0 0 0 0 0 0 0 0 0 0 0 0 -0 -0 0 0 0 0 0 0 0 0 0 -0 -0 0 0 -0 -0 -0 -0 0 -0 -0 -0 0 -0 -0
-0 -0 -0 0 0 0 0 0 0 0 0 0 -0 0 0 0 0 0 0 0 0 0 0 0 0 0 0 0 0 -0 0 0 0 0 0 0 -0 0 -0 -0 -0 -0 -0 0 0 -0 -0 -0 0 -0 -0 -0 -0 -0
0 0 0 0 0 0 0 0 0 0 0 0 -0 0 0 0 0 0 0 0 0 0 0 0 0 0 0 0 0 0 0 0 0 0 0 0 0 0 0 -0 0 0 0 0 -0 0 -0 -0 -0 0 -0 0 -0 -0
0 0 0 0 0 0 0 0 0 0 0 0 0 0 0 -0 -0 -0 0 0 0 0 0 0 0 0 0 0 0 0 0 -0 -0 0 -0 -0 0 0 0 -0 0 0 0 0 0 0 0 0 -0 0 0 -0 0 0
0 0 0 0 0 0 0 0 0 0 0 0 0 0 -0 0 0 0 0 0 0 0 0 0 0 0 0 0 0 0 -0 -0 0 0 0 0 0 0 0 0 -0 0 -0 0 0 0 0 0 0 0 0 0 0 0
0 0 0 0 0 0 0 0 0 0 0 0 -0 0 0 0 0 0 0 0 -0 -0 -0 -0 0 0 0 0 0 0 0 0 0 0 0 0 0 0 0 0 0 0 0 0 0 0 0 0 0 0 0 0 0 0
0 0 0 0 0 0 0 0 0 0 0 0 -0 0 0 0 0 0 0 0 -0 -0 -0 0 0 0 0 0 0 0 0 0 0 0 0 0 0 0 0 0 0 0 0 0 0 0 0 0 0 0 -0 0 0 0
0 0 0 0 0 0 0 0 0 0 0 0 0 0 0 0 0 0 0 0 0 0 0 0 0 0 0 0 0 0 0 0 0 0 0 0 0 0 0 0 0 0 0 0 -0 0 0 0 0 0 0 0 0 0
0 0 0 0 0 0 0 0 0 0 0 0 0 0 0 0 0 0 0 0 0 0 0 -0 -0 0 0 0 0 0 0 0 0 0 0 0 0 0 0 0 0 0 0 0 0 0 0 0 0 0 0 -0 0 0
0 0 0 0 0 0 0 0 0 0 0 0 0 0 0 0 0 0 0 0 0 0 0 0 0 0 0 0 0 0 0 0 0 0 0 0 0 0 0 0 0 0 0 0 0 -0 0 0 0 0 0 -0 -0 -0
0 0 0 0 0 0 0 0 0 0 0 0 0 0 0 0 0 0 0 0 0 0 0 0 0 0 0 0 0 0 0 0 0 0 0 0 0 0 0 0 0 0 0 0 -0 0 0 0 0 0 0 0 -0 0
0 0 0 0 0 0 0 0 0 0 0 0 0 0 0 0 0 0 0 0 0 0 0 0 0 0 0 0 0 0 0 0 0 0 0 0 0 0 0 0 0 0 0 0 0 0 0 0 0 0 0 -0 -0 -0
0 0 0 0 0 0 0 0 0 0 0 0 0 0 0 0 0 0 0 0 0 0 0 0 0 0 0 0 0 0 0 0 0 0 0 0 0 0 0 0 0 0 0 0 0 0 0 0 -0 0 0 0 0 0
0 0 0 0 0 0 0 0 0 0 0 0 0 0 0 0 0 0 0 0 0 0 0 0 0 0 0 0 0 0 0 0 0 0 0 0 0 0 0 0 0 0 0 0 0 0 0 0 0 0 0 0 0 0
0 0 0 0 0 0 0 0 0 0 0 0 0 0 0 0 0 0 0 0 0 0 0 0 0 0 0 0 0 0 0 0 0 0 0 0 0 0 0 0 0 0 0 0 0 0 0 0 0 0 0 0 0 0
Wind_Speed_500mb
39 37 35 35 35 34 36 35 34 33 37 33 40 29 18 19 23 28 30 19 21 13 45 34 23 27 27 31 9 26 21 14 8 4 4 5 4 7 8 10 3 8 6 5 7 7 5 29 12 13 14 30 42 45
38 37 34 29 27 29 30 33 34 33 31 26 33 28 22 20 21 26 27 21 20 35 35 53 63 54 65 62 37 12 18 10 8 5 7 7 5 6 7 5 11 6 8 5 5 8 10 28 21 18 35 44 48 60
38 38 25 23 25 25 27 27 31 31 27 25 29 28 18 21 19 30 26 27 24 26 47 28 18 20 21 19 31 14 1 10 9 12 6 5 6 3 5 6 7 6 29 7 11 7 18 50 27 57 50 61 67 68
39 38 37 32 30 29 28 26 28 29 25 23 27 28 20 24 28 25 29 27 15 11 9 15 12 13 8 11 19 31 29 14 15 21 7 5 4 9 5 9 5 6 10 13 12 17 50 14 52 56 70 73 75 79
48 46 41 39 34 32 28 27 28 28 24 19 25 26 17 17 24 19 34 39 32 16 8 24 46 36 28 34 25 22 17 12 9 7 4 5 8 8 9 2 4 4 2 3 10 37 27 46 67 79 78 77 84 73
50 44 42 36 34 29 27 28 29 29 23 17 24 24 18 17 20 17 9 8 7 29 8 7 18 30 14 37 27 25 20 15 8 4 8 9 4 3 4 6 4 13 11 16 18 44 55 63 67 62 72 82 78 90
49 44 43 40 41 32 30 30 31 25 20 17 24 22 20 22 20 19 8 5 11 17 7 10 10 14 18 40 32 22 22 9 7 2 6 11 10 2 2 5 22 27 36 42 27 33 39 48 60 71 58 77 84 83
37 40 38 39 39 37 31 29 27 24 18 18 23 21 18 19 18 30 29 31 24 18 8 6 8 12 20 22 20 23 14 10 7 7 8 10 8 3 5 7 22 34 40 30 45 49 53 65 70 71 73 79 96 86
32 34 37 35 33 32 27 23 22 20 20 24 21 18 12 13 12 13 11 12 30 14 6 6 5 6 8 35 11 14 19 6 15 5 6 3 4 5 5 10 22 31 30 44 55 56 52 59 72 71 65 82 93 90
38 38 43 44 44 35 25 25 22 24 29 31 24 11 7 7 10 13 9 8 7 8 9 8 8 7 8 7 20 20 16 6 6 8 2 2 1 15 5 8 25 36 40 42 47 50 65 67 72 74 75 80 94 95
38 37 32 34 34 30 24 28 30 34 36 32 16 10 12 12 17 7 9 11 12 7 13 15 29 16 19 7 1 3 5 7 4 4 4 5 2 5 8 21 27 35 46 42 43 46 54 64 72 76 84 83 88 103
37 36 34 31 30 34 28 35 42 51 37 31 19 15 14 11 9 7 6 8 9 7 13 10 20 29 13 5 4 3 4 1 6 16 4 3 1 11 17 21 27 37 50 52 48 45 56 63 72 73 77 88 88 99
45 41 40 44 40 32 36 36 52 55 35 29 8 9 9 10 10 9 9 7 6 10 16 19 5 12 7 4 2 3 4 5 27 6 3 5 12 20 22 25 28 36 54 59 58 46 54 63 69 67 74 87 89 102
40 43 40 35 35 35 36 48 60 61 32 10 12 9 9 9 10 9 11 5 9 21 25 21 5 2 3 5 4 5 6 3 4 3 6 5 20 16 22 26 30 40 49 60 58 54 56 56 63 69 70 88 86 104
41 38 31 30 31 34 38 57 73 57 11 11 10 9 13 20 10 11 20 19 31 36 12 18 9 9 4 4 3 5 5 2 5 3 3 18 16 16 22 26 30 38 42 53 56 65 68 56 55 65 69 77 84 98
33 26 32 28 33 38 62 79 68 38 12 9 10 8 13 6 11 15 19 29 26 14 11 4 6 4 4 1 3 3 5 3 3 3 19 17 18 19 23 24 29 34 39 50 52 56 66 58 60 61 67 76 82 101
30 32 27 29 35 68 86 69 29 12 11 9 11 22 23 13 11 18 24 22 19 13 4 8 6 6 7 4 4 1 1 4 5 19 15 13 13 17 21 24 27 34 38 44 41 48 59 61 61 63 73 79 70 93
38 32 28 42 76 92 61 20 11 15 11 19 10 11 24 21 16 22 13 6 7 8 12 9 9 5 6 5 6 7 12 10 17 13 9 9 9 16 21 22 25 30 36 38 38 41 49 65 73 66 66 71 61 93
36 33 36 62 83 44 13 16 11 9 20 7 24 19 18 22 19 22 7 10 5 6 19 5 2 3 4 9 20 25 21 21 19 8 5 4 2 8 17 22 23 31 44 40 43 50 50 49 64 62 55 65 56 74
33 44 74 86 67 12 10 8 15 6 8 14 17 24 20 20 16 16 16 11 12 7 4 2 5 15 28 23 25 28 20 15 13 5 4 3 5 6 20 26 29 32 41 40 46 50 54 57 65 67 49 57 56 59
85 89 81 67 25 11 8 12 13 10 8 10 17 17 9 18 32 30 22 19 16 7 3 25 32 28 26 26 23 23 20 18 15 10 18 15 22 21 23 28 27 31 37 42 45 45 50 56 62 63 56 49 52 47
71 84 59 39 6 5 4 12 8 5 5 5 18 17 14 20 25 26 19 9 4 6 16 35 32 26 22 24 26 19 24 21 15 8 7 16 20 21 25 25 26 32 36 40 42 45 46 48 60 65 66 47 46 51
75 56 29 7 4 7 7 12 5 6 6 11 12 7 9 12 6 30 12 11 10 13 27 30 25 25 26 20 21 19 12 9 15 12 16 15 16 20 22 25 28 33 33 38 39 41 44 46 47 55 67 59 43 50
53 13 9 13 11 8 10 12 10 7 7 6 10 8 5 8 20 7 6 9 20 25 31 34 25 28 25 23 21 16 13 16 16 11 10 16 16 17 17 19 23 31 29 33 39 40 45 47 51 51 59 66 56 45
12 10 9 7 13 10 10 9 7 6 5 13 13 6 5 10 5 6 5 15 25 33 33 30 25 26 27 23 26 16 9 13 19 17 12 8 13 14 19 23 22 29 34 35 39 38 44 46 48 50 52 60 60 54
5 12 17 15 11 9 9 9 12 10 8 9 6 10 6 4 5 2 5 23 29 37 33 33 32 32 29 28 27 18 10 12 14 18 13 12 13 14 13 13 17 24 31 30 33 36 35 41 43 46 47 50 53 56
5 7 11 12 8 9 6 8 10 5 7 7 8 7 6 6 4 6 10 8 24 31 27 22 18 30 30 39 31 23 15 8 23 24 17 16 18 18 15 17 27 22 22 29 29 41 33 34 35 39 40 42 46 49
4 8 6 8 6 4 4 5 3 6 5 7 14 6 7 5 5 6 17 22 26 25 19 18 16 26 30 28 24 22 14 8 20 15 15 17 16 16 16 15 19 19 23 28 33 38 33 30 33 32 35 40 43 41
4 8 11 8 8 5 3 5 2 1 7 6 6 5 7 8 20 18 12 19 18 25 31 30 29 32 36 32 26 20 13 7 15 24 23 25 16 15 8 9 11 14 13 24 29 32 25 24 29 29 28 34 38 37
9 15 8 6 5 2 3 8 16 19 18 29 25 41 40 30 24 20 21 19 23 23 26 25 22 23 24 24 19 12 9 9 8 13 19 17 12 1 5 8 9 11 13 17 16 26 30 33 35 35 36 40 42 42
21 10 7 6 7 13 28 31 34 41 45 51 46 47 41 39 35 30 26 22 18 22 21 17 19 19 22 22 21 23 17 15 17 21 18 7 7 5 7 8 8 10 13 17 20 29 36 40 41 41 39 40 42 44
11 7 9 6 4 14 21 18 15 18 31 37 35 36 26 14 12 13 27 19 16 13 11 18 29 33 25 26 26 36 31 18 12 6 10 12 12 6 7 12 9 6 11 14 20 27 31 34 36 36 37 36 37 38
10 12 13 10 5 6 9 11 6 8 12 10 8 13 14 9 8 4 16 28 29 24 26 30 30 27 25 22 19 16 9 4 8 8 8 7 8 9 12 11 7 4 2 4 11 15 25 27 29 29 31 32 34 35
Wind_Direction_500mb
290 294 296 292 293 294 294 296 296 289 286 289 286 300 286 273 283 280 311 304 236 252 282 284 273 273 273 283 275 329 326 11 318 289 322 331 341 335 338 328 22 166 209 210 233 236 286 8 16 359 271 311 324 326
283 288 290 297 303 305 301 297 299 289 283 281 281 291 288 264 275 265 302 313 258 241 262 283 282 267 257 260 270 295 301 318 328 355 7 333 340 330 347 294 342 91 169 214 233 260 77 5 312 332 334 328 321 312
272 283 288 289 298 311 315 314 306 297 282 272 275 280 275 254 267 255 294 311 310 272 295 287 285 284 274 247 205 263 86 11 359 349 320 267 286 344 297 294 6 330 33 54 350 342 359 334 330 331 328 319 312 309
267 273 278 286 289 301 315 313 307 302 284 274 268 270 273 253 245 250 279 310 292 274 279 287 322 252 272 251 215 228 256 289 313 314 288 277 258 291 268 258 339 6 355 337 267 278 336 294 319 316 318 316 310 309
265 263 270 274 281 288 301 303 302 304 284 267 264 264 256 250 245 266 266 287 292 231 287 289 296 252 263 229 214 227 231 253 299 303 287 262 288 359 329 299 48 327 359 280 278 307 294 293 305 319 308 312 310 324
258 261 266 267 268 277 293 300 290 294 280 257 255 258 220 243 252 267 284 297 254 199 289 292 293 278 268 190 200 213 226 231 228 241 278 270 295 63 329 317 95 30 8 321 290 299 298 298 306 314 312 316 322 322
253 257 261 261 262 269 280 291 286 278 265 243 239 250 220 241 253 221 211 295 279 197 263 285 281 286 221 197 199 197 197 192 222 211 269 275 279 123 237 251 356 356 332 319 317 318 311 317 304 314 317 321 320 313
253 255 259 257 259 268 278 286 276 264 237 225 234 226 235 235 248 242 258 277 229 198 242 270 276 272 216 195 176 200 169 182 212 239 245 256 146 170 241 328 338 334 325 326 328 328 308 311 315 320 324 329 330 324
257 258 261 265 258 256 271 278 268 242 210 210 201 202 203 219 227 262 289 188 190 208 248 243 269 289 224 219 192 182 177 182 167 227 233 129 217 214 12 4 340 333 325 317 326 322 321 323 321 326 327 331 332 329
267 269 268 255 250 250 264 267 250 212 198 193 187 168 207 215 208 159 166 156 204 232 239 251 253 268 295 250 198 180 179 178 189 210 209 224 122 121 81 16 345 347 338 332 331 329 326 324 330 336 333 334 336 333
261 270 258 245 243 249 261 252 217 192 186 179 175 180 189 152 164 205 201 195 190 233 223 236 219 230 286 268 310 44 182 175 249 158 244 203 155 105 31 8 348 345 340 336 333 328 327 332 331 338 336 335 335 341
256 265 263 251 252 252 250 232 206 199 192 179 157 159 165 188 208 232 214 191 203 236 202 227 215 198 241 275 15 307 222 248 251 148 235 153 114 66 14 347 347 345 353 350 343 338 339 338 341 338 343 340 337 344
252 261 263 253 252 246 234 221 204 200 173 146 163 161 178 179 218 217 213 201 214 223 202 200 223 208 172 146 203 236 234 242 127 203 122 73 67 27 357 346 344 345 359 357 352 351 345 342 344 346 346 345 342 351
256 263 256 240 245 226 211 206 200 191 162 146 163 193 217 190 232 203 226 302 280 242 248 197 143 120 253 162 199 254 226 207 263 24 69 94 59 5 342 348 348 347 351 357 0 357 349 348 347 350 352 352 349 355
259 260 232 218 206 204 208 202 193 184 139 167 193 218 217 240 258 258 230 254 257 278 235 133 166 181 16 30 317 355 279 112 51 77 62 83 46 1 345 345 347 350 349 351 1 6 0 358 359 356 0 355 355 1
255 223 216 211 210 204 197 177 178 173 160 183 218 245 261 285 254 255 259 239 255 251 274 170 171 170 100 306 294 3 353 43 110 146 74 48 23 352 345 348 349 351 351 350 353 353 1 7 5 359 7 360 357 3
206 213 211 215 201 187 179 169 159 167 193 216 229 233 257 280 260 263 214 248 221 267 244 56 273 148 136 170 167 107 214 183 84 89 70 36 359 351 346 351 354 355 350 346 356 352 7 10 10 11 12 2 1 6
201 212 217 195 179 169 160 150 145 181 220 226 243 236 218 245 281 270 231 221 254 278 323 196 243 159 160 196 155 163 184 148 98 82 62 39 11 348 360 1 4 3 354 357 5 351 13 13 10 8 14 10 2 9
212 211 200 188 178 143 132 169 164 210 223 229 225 249 222 237 265 270 218 206 245 321 300 248 131 124 110 62 121 128 107 106 106 88 42 7 67 3 32 35 22 10 13 22 12 12 13 6 6 13 17 20 10 10
203 191 183 176 162 107 123 148 183 246 216 218 222 218 221 225 229 223 217 213 206 239 262 350 65 53 101 94 102 103 110 113 111 131 242 146 74 25 42 47 31 21 17 17 15 18 15 11 11 17 20 26 24 14
166 161 165 166 134 112 143 159 180 223 228 198 194 195 209 220 235 237 209 216 228 252 97 117 101 99 103 105 111 115 119 125 122 71 45 53 62 63 58 39 38 29 25 23 19 17 16 16 10 15 25 28 33 28
152 168 155 153 88 116 175 191 216 205 208 206 168 188 209 218 223 214 190 181 237 106 115 120 126 123 115 110 120 134 122 114 115 63 122 70 55 59 62 42 39 33 29 24 20 17 18 13 13 19 22 27 35 39
155 156 138 106 142 192 236 183 195 212 207 184 176 183 238 191 125 149 188 170 128 99 129 128 131 148 132 131 127 127 133 123 105 74 67 88 72 56 66 50 40 35 31 24 22 21 22 17 19 14 19 24 31 38
147 108 141 171 181 195 181 182 211 213 208 196 167 228 153 138 181 197 164 128 138 142 133 138 143 132 133 144 142 136 110 122 116 89 64 65 73 65 57 42 44 42 29 25 20 25 25 19 25 21 13 18 29 34
120 165 179 185 204 202 182 179 203 201 192 200 194 133 153 136 144 206 174 136 163 152 146 154 159 162 174 168 136 148 114 118 123 100 72 85 66 79 70 50 32 48 23 31 20 23 25 20 27 27 18 12 23 29
128 176 184 199 182 183 189 164 187 210 197 185 157 103 99 115 179 180 58 156 171 158 160 175 180 188 177 157 146 140 117 101 128 115 89 87 76 73 61 41 34 52 30 28 14 18 30 21 22 26 22 9 20 24
149 190 198 216 215 185 162 176 185 185 208 180 152 151 133 145 120 55 93 127 155 153 165 180 212 152 139 133 136 137 137 121 117 127 120 99 89 73 60 57 44 47 31 16 11 13 24 20 19 23 18 9 21 19
248 179 160 183 158 138 121 88 157 207 215 146 138 142 121 48 95 103 112 124 132 144 139 110 126 140 137 126 128 126 139 162 134 124 116 101 94 90 78 55 47 30 18 11 8 4 8 12 13 18 13 2 14 17
217 160 115 91 75 65 183 215 232 83 320 212 90 92 98 112 118 122 139 133 129 138 124 122 123 118 116 118 117 115 123 163 193 189 180 135 102 60 49 51 53 29 45 14 359 342 359 353 359 2 2 352 3 8
158 146 115 134 145 149 123 94 94 82 93 113 105 106 106 108 102 104 114 123 129 133 135 134 129 139 136 138 127 128 151 129 112 130 138 110 90 40 346 25 18 20 30 13 356 325 341 354 354 354 353 353 355 358
146 124 112 94 64 91 97 98 80 96 99 105 114 111 112 107 107 98 106 113 138 141 141 143 154 162 163 160 162 147 109 106 128 119 101 134 236 265 40 349 333 1 26 360 329 325 339 347 351 352 353 354 355 357
144 135 120 103 80 83 86 60 71 94 103 108 114 120 118 77 62 39 44 74 102 135 169 156 131 115 138 155 152 153 166 164 124 140 205 252 302 312 280 303 332 25 41 351 332 329 334 344 347 348 350 353 354 354
95 99 100 98 88 97 89 89 77 76 88 97 92 100 85 73 88 85 82 80 81 105 127 135 140 141 145 137 138 147 171 266 320 332 332 329 326 321 319 327 321 330 37 353 314 331 334 338 347 349 351 355 358 360
Wind_Speed_850mb
39 37 35 35 35 34 36 35 34 33 37 33 40 29 18 19 23 28 30 19 21 13 45 34 23 27 27 31 9 26 21 14 8 4 4 5 4 7 8 10 3 8 6 5 7 7 5 29 12 13 14 30 42 45
38 37 34 29 27 29 30 33 34 33 31 26 33 28 22 20 21 26 27 21 20 35 35 53 63 54 65 62 37 12 18 10 8 5 7 7 5 6 7 5 11 6 8 5 5 8 10 28 21 18 35 44 48 60
38 38 25 23 25 25 27 27 31 31 27 25 29 28 18 21 19 30 26 27 24 26 47 28 18 20 21 19 31 14 1 10 9 12 6 5 6 3 5 6 7 6 29 7 11 7 18 50 27 57 50 61 67 68
39 38 37 32 30 29 28 26 28 29 25 23 27 28 20 24 28 25 29 27 15 11 9 15 12 13 8 11 19 31 29 14 15 21 7 5 4 9 5 9 5 6 10 13 12 17 50 14 52 56 70 73 75 79
48 46 41 39 34 32 28 27 28 28 24 19 25 26 17 17 24 19 34 39 32 16 8 24 46 36 28 34 25 22 17 12 9 7 4 5 8 8 9 2 4 4 2 3 10 37 27 46 67 79 78 77 84 73
50 44 42 36 34 29 27 28 29 29 23 17 24 24 18 17 20 17 9 8 7 29 8 7 18 30 14 37 27 25 20 15 8 4 8 9 4 3 4 6 4 13 11 16 18 44 55 63 67 62 72 82 78 90
49 44 43 40 41 32 30 30 31 25 20 17 24 22 20 22 20 19 8 5 11 17 7 10 10 14 18 40 32 22 22 9 7 2 6 11 10 2 2 5 22 27 36 42 27 33 39 48 60 71 58 77 84 83
37 40 38 39 39 37 31 29 27 24 18 18 23 21 18 19 18 30 29 31 24 18 8 6 8 12 20 22 20 23 14 10 7 7 8 10 8 3 5 7 22 34 40 30 45 49 53 65 70 71 73 79 96 86
32 34 37 35 33 32 27 23 22 20 20 24 21 18 12 13 12 13 11 12 30 14 6 6 5 6 8 35 11 14 19 6 15 5 6 3 4 5 5 10 22 31 30 44 55 56 52 59 72 71 65 82 93 90
38 38 43 44 44 35 25 25 22 24 29 31 24 11 7 7 10 13 9 8 7 8 9 8 8 7 8 7 20 20 16 6 6 8 2 2 1 15 5 8 25 36 40 42 47 50 65 67 72 74 75 80 94 95
38 37 32 34 34 30 24 28 30 34 36 32 16 10 12 12 17 7 9 11 12 7 13 15 29 16 19 7 1 3 5 7 4 4 4 5 2 5 8 21 27 35 46 42 43 46 54 64 72 76 84 83 88 103
37 36 34 31 30 34 28 35 42 51 37 31 19 15 14 11 9 7 6 8 9 7 13 10 20 29 13 5 4 3 4 1 6 16 4 3 1 11 17 21 27 37 50 52 48 45 56 63 72 73 77 88 88 99
45 41 40 44 40 32 36 36 52 55 35 29 8 9 9 10 10 9 9 7 6 10 16 19 5 12 7 4 2 3 4 5 27 6 3 5 12 20 22 25 28 36 54 59 58 46 54 63 69 67 74 87 89 102
40 43 40 35 35 35 36 48 60 61 32 10 12 9 9 9 10 9 11 5 9 21 25 21 5 2 3 5 4 5 6 3 4 3 6 5 20 16 22 26 30 40 49 60 58 54 56 56 63 69 70 88 86 104
41 38 31 30 31 34 38 57 73 57 11 11 10 9 13 20 10 11 20 19 31 36 12 18 9 9 4 4 3 5 5 2 5 3 3 18 16 16 22 26 30 38 42 53 56 65 68 56 55 65 69 77 84 98
33 26 32 28 33 38 62 79 68 38 12 9 10 8 13 6 11 15 19 29 26 14 11 4 6 4 4 1 3 3 5 3 3 3 19 17 18 19 23 24 29 34 39 50 52 56 66 58 60 61 67 76 82 101
30 32 27 29 35 68 86 69 29 12 11 9 11 22 23 13 11 18 24 22 19 13 4 8 6 6 7 4 4 1 1 4 5 19 15 13 13 17 21 24 27 34 38 44 41 48 59 61 61 63 73 79 70 93
38 32 28 42 76 92 61 20 11 15 11 19 10 11 24 21 16 22 13 6 7 8 12 9 9 5 6 5 6 7 12 10 17 13 9 9 9 16 21 22 25 30 36 38 38 41 49 65 73 66 66 71 61 93
36 33 36 62 83 44 13 16 11 9 20 7 24 19 18 22 19 22 7 10 5 6 19 5 2 3 4 9 20 25 21 21 19 8 5 4 2 8 17 22 23 31 44 40 43 50 50 49 64 62 55 65 56 74
33 44 74 86 67 12 10 8 15 6 8 14 17 24 20 20 16 16 16 11 12 7 4 2 5 15 28 23 25 28 20 15 13 5 4 3 5 6 20 26 29 32 41 40 46 50 54 57 65 67 49 57 56 59
85 89 81 67 25 11 8 12 13 10 8 10 17 17 9 18 32 30 22 19 16 7 3 25 32 28 26 26 23 23 20 18 15 10 18 15 22 21 23 28 27 31 37 42 45 45 50 56 62 63 56 49 52 47
71 84 59 39 6 5 4 12 8 5 5 5 18 17 14 20 25 26 19 9 4 6 16 35 32 26 22 24 26 19 24 21 15 8 7 16 20 21 25 25 26 32 36 40 42 45 46 48 60 65 66 47 46 51
75 56 29 7 4 7 7 12 5 6 6 11 12 7 9 12 6 30 12 11 10 13 27 30 25 25 26 20 21 19 12 9 15 12 16 15 16 20 22 25 28 33 33 38 39 41 44 46 47 55 67 59 43 50
53 13 9 13 11 8 10 12 10 7 7 6 10 8 5 8 20 7 6 9 20 25 31 34 25 28 25 23 21 16 13 16 16 11 10 16 16 17 17 19 23 31 29 33 39 40 45 47 51 51 59 66 56 45
12 10 9 7 13 10 10 9 7 6 5 13 13 6 5 10 5 6 5 15 25 33 33 30 25 26 27 23 26 16 9 13 19 17 12 8 13 14 19 23 22 29 34 35 39 38 44 46 48 50 52 60 60 54
5 12 17 15 11 9 9 9 12 10 8 9 6 10 6 4 5 2 5 23 29 37 33 33 32 32 29 28 27 18 10 12 14 18 13 12 13 14 13 13 17 24 31 30 33 36 35 41 43 46 47 50 53 56
5 7 11 12 8 9 6 8 10 5 7 7 8 7 6 6 4 6 10 8 24 31 27 22 18 30 30 39 31 23 15 8 23 24 17 16 18 18 15 17 27 22 22 29 29 41 33 34 35 39 40 42 46 49
4 8 6 8 6 4 4 5 3 6 5 7 14 6 7 5 5 6 17 22 26 25 19 18 16 26 30 28 24 22 14 8 20 15 15 17 16 16 16 15 19 19 23 28 33 38 33 30 33 32 35 40 43 41
4 8 11 8 8 5 3 5 2 1 7 6 6 5 7 8 20 18 12 19 18 25 31 30 29 32 36 32 26 20 13 7 15 24 23 25 16 15 8 9 11 14 13 24 29 32 25 24 29 29 28 34 38 37
9 15 8 6 5 2 3 8 16 19 18 29 25 41 40 30 24 20 21 19 23 23 26 25 22 23 24 24 19 12 9 9 8 13 19 17 12 1 5 8 9 11 13 17 16 26 30 33 35 35 36 40 42 42
21 10 7 6 7 13 28 31 34 41 45 51 46 47 41 39 35 30 26 22 18 22 21 17 19 19 22 22 21 23 17 15 17 21 18 7 7 5 7 8 8 10 13 17 20 29 36 40 41 41 39 40 42 44
11 7 9 6 4 14 21 18 15 18 31 37 35 36 26 14 12 13 27 19 16 13 11 18 29 33 25 26 26 36 31 18 12 6 10 12 12 6 7 12 9 6 11 14 20 27 31 34 36 36 37 36 37 38
10 12 13 10 5 6 9 11 6 8 12 10 8 13 14 9 8 4 16 28 29 24 26 30 30 27 25 22 19 16 9 4 8 8 8 7 8 9 12 11 7 4 2 4 11 15 25 27 29 29 31 32 34 35
Wind_Direction_850mb
290 294 296 292 293 294 294 296 296 289 286 289 286 300 286 273 283 280 311 304 236 252 282 284 273 273 273 283 275 329 326 11 318 289 322 331 341 335 338 328 22 166 209 210 233 236 286 8 16 359 271 311 324 326
283 288 290 297 303 305 301 297 299 289 283 281 281 291 288 264 275 265 302 313 258 241 262 283 282 267 257 260 270 295 301 318 328 355 7 333 340 330 347 294 342 91 169 214 233 260 77 5 312 332 334 328 321 312
272 283 288 289 298 311 315 314 306 297 282 272 275 280 275 254 267 255 294 311 310 272 295 287 285 284 274 247 205 263 86 11 359 349 320 267 286 344 297 294 6 330 33 54 350 342 359 334 330 331 328 319 312 309
267 273 278 286 289 301 315 313 307 302 284 274 268 270 273 253 245 250 279 310 292 274 279 287 322 252 272 251 215 228 256 289 313 314 288 277 258 291 268 258 339 6 355 337 267 278 336 294 319 316 318 316 310 309
265 263 270 274 281 288 301 303 302 304 284 267 264 264 256 250 245 266 266 287 292 231 287 289 296 252 263 229 214 227 231 253 299 303 287 262 288 359 329 299 48 327 359 280 278 307 294 293 305 319 308 312 310 324
258 261 266 267 268 277 293 300 290 294 280 257 255 258 220 243 252 267 284 297 254 199 289 292 293 278 268 190 200 213 226 231 228 241 278 270 295 63 329 317 95 30 8 321 290 299 298 298 306 314 312 316 322 322
253 257 261 261 262 269 280 291 286 278 265 243 239 250 220 241 253 221 211 295 279 197 263 285 281 286 221 197 199 197 197 192 222 211 269 275 279 123 237 251 356 356 332 319 317 318 311 317 304 314 317 321 320 313
253 255 259 257 259 268 278 286 276 264 237 225 234 226 235 235 248 242 258 277 229 198 242 270 276 272 216 195 176 200 169 182 212 239 245 256 146 170 241 328 338 334 325 326 328 328 308 311 315 320 324 329 330 324
257 258 261 265 258 256 271 278 268 242 210 210 201 202 203 219 227 262 289 188 190 208 248 243 269 289 224 219 192 182 177 182 167 227 233 129 217 214 12 4 340 333 325 317 326 322 321 323 321 326 327 331 332 329
267 269 268 255 250 250 264 267 250 212 198 193 187 168 207 215 208 159 166 156 204 232 239 251 253 268 295 250 198 180 179 178 189 210 209 224 122 121 81 16 345 347 338 332 331 329 326 324 330 336 333 334 336 333
261 270 258 245 243 249 261 252 217 192 186 179 175 180 189 152 164 205 201 195 190 233 223 236 219 230 286 268 310 44 182 175 249 158 244 203 155 105 31 8 348 345 340 336 333 328 327 332 331 338 336 335 335 341
256 265 263 251 252 252 250 232 206 199 192 179 157 159 165 188 208 232 214 191 203 236 202 227 215 198 241 275 15 307 222 248 251 148 235 153 114 66 14 347 347 345 353 350 343 338 339 338 341 338 343 340 337 344
252 261 263 253 252 246 234 221 204 200 173 146 163 161 178 179 218 217 213 201 214 223 202 200 223 208 172 146 203 236 234 242 127 203 122 73 67 27 357 346 344 345 359 357 352 351 345 342 344 346 346 345 342 351
256 263 256 240 245 226 211 206 200 191 162 146 163 193 217 190 232 203 226 302 280 242 248 197 143 120 253 162 199 254 226 207 263 24 69 94 59 5 342 348 348 347 351 357 0 357 349 348 347 350 352 352 349 355
259 260 232 218 206 204 208 202 193 184 139 167 193 218 217 240 258 258 230 254 257 278 235 133 166 181 16 30 317 355 279 112 51 77 62 83 46 1 345 345 347 350 349 351 1 6 0 358 359 356 0 355 355 1
255 223 216 211 210 204 197 177 178 173 160 183 218 245 261 285 254 255 259 239 255 251 274 170 171 170 100 306 294 3 353 43 110 146 74 48 23 352 345 348 349 351 351 350 353 353 1 7 5 359 7 360 357 3
206 213 211 215 201 187 179 169 159 167 193 216 229 233 257 280 260 263 214 248 221 267 244 56 273 148 136 170 167 107 214 183 84 89 70 36 359 351 346 351 354 355 350 346 356 352 7 10 10 11 12 2 1 6
201 212 217 195 179 169 160 150 145 181 220 226 243 236 218 245 281 270 231 221 254 278 323 196 243 159 160 196 155 163 184 148 98 82 62 39 11 348 360 1 4 3 354 357 5 351 13 13 10 8 14 10 2 9
212 211 200 188 178 143 132 169 164 210 223 229 225 249 222 237 265 270 218 206 245 321 300 248 131 124 110 62 121 128 107 106 106 88 42 7 67 3 32 35 22 10 13 22 12 12 13 6 6 13 17 20 10 10
203 191 183 176 162 107 123 148 183 246 216 218 222 218 221 225 229 223 217 213 206 239 262 350 65 53 101 94 102 103 110 113 111 131 242 146 74 25 42 47 31 21 17 17 15 18 15 11 11 17 20 26 24 14
166 161 165 166 134 112 143 159 180 223 228 198 194 195 209 220 235 237 209 216 228 252 97 117 101 99 103 105 111 115 119 125 122 71 45 53 62 63 58 39 38 29 25 23 19 17 16 16 10 15 25 28 33 28
152 168 155 153 88 116 175 191 216 205 208 206 168 188 209 218 223 214 190 181 237 106 115 120 126 123 115 110 120 134 122 114 115 63 122 70 55 59 62 42 39 33 29 24 20 17 18 13 13 19 22 27 35 39
155 156 138 106 142 192 236 183 195 212 207 184 176 183 238 191 125 149 188 170 128 99 129 128 131 148 132 131 127 127 133 123 105 74 67 88 72 56 66 50 40 35 31 24 22 21 22 17 19 14 19 24 31 38
147 108 141 171 181 195 181 182 211 213 208 196 167 228 153 138 181 197 164 128 138 142 133 138 143 132 133 144 142 136 110 122 116 89 64 65 73 65 57 42 44 42 29 25 20 25 25 19 25 21 13 18 29 34
120 165 179 185 204 202 182 179 203 201 192 200 194 133 153 136 144 206 174 136 163 152 146 154 159 162 174 168 136 148 114 118 123 100 72 85 66 79 70 50 32 48 23 31 20 23 25 20 27 27 18 12 23 29
128 176 184 199 182 183 189 164 187 210 197 185 157 103 99 115 179 180 58 156 171 158 160 175 180 188 177 157 146 140 117 101 128 115 89 87 76 73 61 41 34 52 30 28 14 18 30 21 22 26 22 9 20 24
149 190 198 216 215 185 162 176 185 185 208 180 152 151 133 145 120 55 93 127 155 153 165 180 212 152 139 133 136 137 137 121 117 127 120 99 89 73 60 57 44 47 31 16 11 13 24 20 19 23 18 9 21 19
248 179 160 183 158 138 121 88 157 207 215 146 138 142 121 48 95 103 112 124 132 144 139 110 126 140 137 126 128 126 139 162 134 124 116 101 94 90 78 55 47 30 18 11 8 4 8 12 13 18 13 2 14 17
217 160 115 91 75 65 183 215 232 83 320 212 90 92 98 112 118 122 139 133 129 138 124 122 123 118 116 118 117 115 123 163 193 189 180 135 102 60 49 51 53 29 45 14 359 342 359 353 359 2 2 352 3 8
158 146 115 134 145 149 123 94 94 82 93 113 105 106 106 108 102 104 114 123 129 133 135 134 129 139 136 138 127 128 151 129 112 130 138 110 90 40 346 25 18 20 30 13 356 325 341 354 354 354 353 353 355 358
146 124 112 94 64 91 97 98 80 96 99 105 114 111 112 107 107 98 106 113 138 141 141 143 154 162 163 160 162 147 109 106 128 119 101 134 236 265 40 349 333 1 26 360 329 325 339 347 351 352 353 354 355 357
144 135 120 103 80 83 86 60 71 94 103 108 114 120 118 77 62 39 44 74 102 135 169 156 131 115 138 155 152 153 166 164 124 140 205 252 302 312 280 303 332 25 41 351 332 329 334 344 347 348 350 353 354 354
95 99 100 98 88 97 89 89 77 76 88 97 92 100 85 73 88 85 82 80 81 105 127 135 140 141 145 137 138 147 171 266 320 332 332 329 326 321 319 327 321 330 37 353 314 331 334 338 347 349 351 355 358 360